This is the latest recevied weather packets stored in our database for station/object KC0QBU-13. If no packets are shown the sender has not sent any weather packets the latest 10 day(s).
| Time | Temp. | Humidity | Pressure | Rain* | Wind** | Luminosity | Snow |
|---|---|---|---|---|---|---|---|
| 1777959263 | 17.78° C | 56% | 1007.3 hPa | 0 mm | - | - | - |
| 1777958963 | 18.33° C | 55% | 1007.6 hPa | 0 mm | - | - | - |
| 1777958663 | 18.89° C | 49% | 1007.2 hPa | 0 mm | - | - | - |
| 1777958333 | 19.44° C | 46% | 1006.9 hPa | 0 mm | - | - | - |
| 1777958033 | 20.56° C | 44% | 1006.9 hPa | 0 mm | - | - | - |
| 1777957703 | 21.11° C | 42% | 1006.7 hPa | 0 mm | - | - | - |
| 1777957373 | 21.67° C | 46% | 1006.2 hPa | 0 mm | - | - | - |
| 1777957073 | 21.67° C | 60% | 1006.1 hPa | 0 mm | - | - | - |
| 1777956773 | 21.67° C | 66% | 1006 hPa | 0 mm | - | - | - |
| 1777956473 | 21.67° C | 66% | 1005.9 hPa | 0 mm | - | - | - |
| 1777956173 | 21.67° C | 66% | 1005.5 hPa | 0 mm | - | - | - |
| 1777955843 | 21.67° C | 66% | 1005.3 hPa | 0 mm | - | - | - |
| 1777955543 | 21.67° C | 65% | 1005.1 hPa | 0 mm | - | - | - |
| 1777955243 | 21.67° C | 65% | 1005.2 hPa | 0 mm | - | - | - |
| 1777954913 | 21.67° C | 66% | 1005.4 hPa | 0 mm | - | - | - |
| 1777954613 | 21.67° C | 66% | 1005.4 hPa | 0 mm | - | - | - |
| 1777954313 | 22.22° C | 66% | 1005.6 hPa | 0 mm | - | - | - |
| 1777953983 | 22.22° C | 66% | 1005.7 hPa | 0 mm | - | - | - |
| 1777953683 | 22.22° C | 66% | 1005.8 hPa | 0 mm | - | - | - |
| 1777953383 | 22.22° C | 66% | 1005.8 hPa | 0 mm | - | - | - |
| 1777953053 | 22.22° C | 66% | 1005.8 hPa | 0 mm | - | - | - |
| 1777952723 | 22.22° C | 65% | 1005.9 hPa | 0 mm | - | - | - |
| 1777952423 | 22.22° C | 65% | 1005.8 hPa | 0 mm | - | - | - |
| 1777952093 | 22.22° C | 65% | 1005.9 hPa | 0 mm | - | - | - |
| 1777951763 | 22.22° C | 65% | 1005.9 hPa | 0 mm | - | - | - |
* Rain latest hour (hover to see other rain measurements)
** Current wind speed in m/s (hover to see current wind gust speed)